Regional Weather Roundup
Issued by NWS Kansas City/Pleasant Hill, MO

Home | Current Version | Previous Version | Text Only | Print | Product List | Glossary On
Versions: 1 2 3 4 5 6 7 8 9 10 11 12 13 14 15 16 17 18 19 20 21 22 23 24 25 26 27 28
000
ASUS43 KEAX 240610
RWREAX

WEATHER ROUNDUP FOR EASTERN KANSAS AND NORTHWEST MISSOURI
NATIONAL WEATHER SERVICE KANSAS CITY/PLEASANT HILL MO
100 AM CDT FRI MAR 24 2017

KSZ040-057-103>105-MOZ028-029-037-043-240700-
...KANSAS CITY METROPOLITAN AREA...

CITY           SKY/WX    TMP DP  RH WIND       PRES   REMARKS
K.C. INTL      CLOUDY    68  48  48 S20       29.77S
6HR MIN TEMP:  68; 6HR MAX TEMP:  76;

K.C. DOWNTOWN  PTCLDY    71  48  43 S14G25    29.78S
6HR MIN TEMP:  71; 6HR MAX TEMP:  78;

LEES SUMMIT    PTCLDY    69  47  45 S16G29    29.79F
6HR MIN TEMP:  69; 6HR MAX TEMP:  76;

OLATHE - IXD   MOCLDY    67  48  50 S15G24    29.78R
6HR MIN TEMP:  67; 6HR MAX TEMP:  74;

OLATHE - OJC   CLOUDY    67  49  52 S21G26    29.78S
6HR MIN TEMP:  67; 6HR MAX TEMP:  74;

LAWRENCE       MOCLDY    71  50  47 S17G28    29.76F HAZE

$$

MOZ001>008-011>017-020>025-030>033-038>040-044>046-053-054-240700-
...NORTHERN AND CENTRAL MISSOURI...

CITY           SKY/WX    TMP DP  RH WIND       PRES   REMARKS
ST. JOSEPH     MOCLDY    69  49  48 S16       29.77R
6HR MIN TEMP:  69; 6HR MAX TEMP:  77;

MOSBY          CLOUDY    70  45  40 S16G30    29.79S
WARRENSBURG    CLOUDY    68  45  42 S22G28    29.81F
WHITEMAN AFB   CLEAR     66  50  56 S15       29.83S
6HR MIN TEMP:  66; 6HR MAX TEMP:  74;

CLINTON        CLOUDY    68  48  49 S13G20    29.86S
SEDALIA        PTCLDY    68  51  54 S14       29.87S
6HR MIN TEMP:  68; 6HR MAX TEMP:  75;

WARSAW         NOT AVBL
CHILLICOTHE      N/A     67  47  48 S9G17     29.81F
6HR MIN TEMP:  67; 6HR MAX TEMP:  76;

KIRKSVILLE     CLOUDY    50  32  50 S9        29.85F
6HR MIN TEMP:  47; 6HR MAX TEMP:  62;


$$

MOZ041-047>049-056>058-063>065-088>090-097-240700-
...EASTERN AND SOUTHERN MISSOURI...

CITY           SKY/WX    TMP DP  RH WIND       PRES   REMARKS
ST. LOUIS INTL PTCLDY    58  43  57 SE13      29.96F
6HR MIN TEMP:  58; 6HR MAX TEMP:  62;

SPIRIT OF STL  CLEAR     61  48  62 VRB6      29.93F
COLUMBIA       PTCLDY    64  52  64 S13       29.88F
JEFFERSON CITY CLOUDY    69  51  52 SE8       29.89F
ROLLA          CLEAR     66  51  58 S20G26    29.91F
OSAGE BEACH    CLOUDY   N/A N/A N/A S12G22    29.90F
SPRINGFIELD    CLEAR     67  48  50 SE18      29.89F
BRANSON        CLEAR     68  46  45 S10       29.95F
JOPLIN         CLEAR     71  48  43 S21G28    29.85S
WEST PLAINS    CLEAR     64  52  64 SE14G21   30.01F

$$

IAZ060-094-KSZ022-034>040-054-083-096-NEZ052-066-093-240700-
...KANSAS...SOUTHEAST NEBRASKA AND IOWA...

CITY           SKY/WX    TMP DP  RH WIND       PRES   REMARKS
TOPEKA         MOCLDY    70  51  51 VRB7G17   29.75R
6HR MIN TEMP:  69; 6HR MAX TEMP:  75;

MANHATTAN      MOCLDY    72  49  44 S13       29.74R
EMPORIA        MOCLDY    67  50  54 S20G26    29.72S
CHANUTE        CLOUDY    68  50  52 S21G31    29.78F
WICHITA        CLOUDY    70  49  47 S23G29    29.75R
OMAHA          CLOUDY    71  49  45 S22G30    29.67R
LINCOLN        CLOUDY    69  50  50 S15       29.69R
FALLS CITY     MOCLDY    67  48  50 S12       29.74S
LAMONI         MOCLDY    64  46  52 S14       29.78S
DES MOINES     MOCLDY    56  42  59 SE6       29.76S

$$





USA.gov is the U.S. government's official web portal to all federal, state and local government web resources and services.